Location: Bouchier
(44.2500°N, 6.6333°E)
Time: 16:42:19
(UTC+00:00)

Daily predictions for brighter satellites

Satellite Brightness Start Highest point End
(mag) Time Altitude Azimuth Time Altitude Azimuth Time Altitude Azimuth
Cosmos 1602 Rocket 3.9 16:54:24 10° NNW 16:58:53 77° W 17:03:20 10° S
FALCON 9 DEB 4.3 17:00:37 10° SSW 17:03:19 25° SE 17:06:01 10° ENE
Helios 1A Rocket 4.1 17:01:45 10° ESE 17:05:01 23° ENE 17:08:16 10° NNE
Cosmos 292 Rocket 4.4 17:01:48 10° SSE 17:06:09 36° ESE 17:10:32 10° NE
Cosmos 2058 Rocket 4.2 17:03:28 10° SE 17:06:59 23° E 17:10:32 10° NE
CORIOLIS 4.2 17:02:11 10° SSE 17:07:32 87° ENE 17:12:55 10° NNW
Cosmos 1953 Rocket 4.2 17:03:32 10° N 17:07:36 35° ENE 17:11:39 10° SE
Cosmos 1939 Rocket 3.5 17:04:17 10° SE 17:07:51 32° ENE 17:11:23 10° N
Cosmos 1340 4.2 17:05:19 10° NNE 17:07:52 17° ENE 17:10:25 10° ESE
ERS-2 2.0 17:04:52 10° NNE 17:08:31 78° ESE 17:12:10 10° S
FALCON 9 DEB 4.0 17:06:57 10° SSW 17:09:47 30° SE 17:12:33 10° ENE
Cosmos 1328 3.9 17:11:43 10° N 17:15:41 82° W 17:19:37 10° S
SAR-Lupe-4 3.7 17:13:03 10° NNE 17:16:34 49° E 17:20:03 10° S
SMAP 3.7 17:13:06 10° S 17:17:42 62° W 17:22:20 10° NNW
FALCON 9 DEB 3.8 17:16:07 10° SSW 17:19:06 34° SE 17:21:32 14° ENE
Cosmos 1331 Rocket 3.9 17:15:34 10° S 17:20:40 67° ESE 17:25:48 10° NNE
Cosmos 2219 3.8 17:17:16 10° N 17:22:32 36° NE 17:27:47 10° ESE
Timation 2 Rocket 4.2 17:20:46 10° NNW 17:27:16 59° ENE 17:33:59 10° SE
CZ-4 R/B 2.1 17:24:16 10° SE 17:27:40 29° ENE 17:31:03 10° N
Aureole 3 3.4 17:29:30 10° SSE 17:32:31 33° E 17:35:17 10° NNE
FALCON 9 DEB 3.2 17:29:39 10° SW 17:32:47 49° SE 17:34:45 20° ENE
COSMO-SKYMED 1 2.6 17:28:30 10° NNE 17:32:49 59° E 17:37:05 10° S
SAR-Lupe-1 4.0 17:30:38 10° NNE 17:34:15 78° ESE 17:37:49 10° S
SeaSat 1 3.7 17:32:11 15° E 17:34:41 22° NE 17:38:24 10° N
Cosmos 1400 Rocket 3.2 17:31:36 10° SSE 17:35:28 41° E 17:39:21 10° NNE
Okean O Rocket 3.4 17:33:53 10° SSW 17:37:55 36° W 17:41:58 10° NNW
USA 215 4.3 17:33:06 13° ENE 17:38:02 32° N 17:43:38 10° NW
H-2A R/B 4.4 17:34:48 10° NNW 17:38:07 23° WNW 17:41:22 10° WSW
ATLAS 2AS CENTAUR R/B 4.4 17:34:42 10° NNW 17:40:10 20° NNE 17:44:29 13° ENE
CZ-2C R/B 3.6 17:36:49 10° SE 17:42:18 45° ENE 17:47:40 10° N
Cosmos 968 Rocket 4.2 17:39:50 10° N 17:44:33 33° ENE 17:47:57 17° ESE
ATLAS 5 CENTAUR R/B 4.2 17:43:46 10° NW 17:45:43 12° NNW 17:47:45 10° N
Cosmos 1825 Rocket 4.2 17:41:19 10° NNW 17:45:43 61° W 17:50:04 10° S
USA 305 4.3 17:43:25 10° NW 17:47:03 26° NNE 17:49:00 19° NE
Cosmos 1110 Rocket 4.4 17:42:08 10° SSW 17:47:21 66° WNW 17:52:34 10° NNE
YAOGAN 1 2.8 17:44:01 10° SE 17:48:07 44° ENE 17:52:15 10° N
Milstar 3 4.4 17:44:21 10° SW 17:49:17 21° S 17:54:02 11° SE
Cosmos 1689 Rocket 2.0 17:46:30 10° N 17:49:24 84° WNW 17:52:16 10° SSW
Cosmos 1302 Rocket 4.0 17:44:49 10° S 17:49:59 63° ESE 17:55:13 10° NNE
Meteor 2-10 Rocket 4.1 17:45:47 10° SSE 17:50:32 33° E 17:55:10 10° NNE
USA 306 4.2 17:49:44 10° NW 17:53:23 26° NNE 17:55:01 21° NE
ARGOS 3.9 17:50:29 18° ESE 17:53:28 30° ENE 17:58:07 10° N
Cosmos 1553 Rocket 4.1 17:47:38 10° SSE 17:53:51 57° E 18:00:00 10° NNE
Cosmos 1486 Rocket 4.4 17:50:36 10° N 17:55:41 43° ENE 17:59:22 18° SE
Meteor 2-8 Rocket 4.4 17:50:36 10° S 17:56:38 71° E 18:02:45 10° NNE
Cosmos 2227 Rocket 2.4 17:53:58 10° NNW 17:59:29 50° ENE 18:03:35 18° SE
SL-4 R/B 3.3 17:57:21 10° WNW 18:00:23 25° N 18:01:41 21° NNE
Cosmos 1726 Rocket 4.1 17:56:39 10° SSW 18:00:55 60° W 18:05:16 10° N
Cosmos 1656 3.7 17:56:01 10° S 18:01:24 56° ESE 18:06:55 10° NNE
Cosmos 1892 2.8 17:59:07 10° N 18:02:54 49° ENE 18:05:38 17° SSE
Cosmos 1346 Rocket 3.2 18:02:17 10° N 18:06:03 38° ENE 18:06:07 38° ENE
Okean-O 2.6 18:03:13 10° SSE 18:07:39 89° W 18:12:06 10° NNW
CSL-04 Rocket 3.8 18:02:33 10° SE 18:07:54 52° ENE 18:13:16 10° N
BREEZE-M R/B 4.1 18:04:09 10° WNW 18:08:04 49° N 18:11:38 26° ENE
Cosmos 2263 Rocket 4.1 18:05:29 10° NNE 18:07:58 13° NE 18:07:58 13° NE
CZ-2D R/B 3.5 18:04:31 10° S 18:08:17 68° WSW 18:12:06 10° NNW
MOS 1 Rocket 3.5 18:05:28 10° NNE 18:09:58 47° E 18:14:42 10° S
Aureole 3 Rocket 3.1 18:07:03 10° SSW 18:10:43 78° W 18:15:44 10° N
Cosmos 1300 4.3 18:10:24 10° SW 18:13:56 37° WNW 18:17:31 10° N
SJ-11-01 4.3 18:11:33 16° SSE 18:15:09 57° ENE 18:19:44 10° N
GEOS 3 Rocket 3.6 18:12:44 26° SE 18:15:43 67° NE 18:21:05 10° NNW
Cosmos 1697 Rocket 3.0 18:12:18 10° S 18:17:29 40° ESE 18:18:40 36° ENE
Meteor 2-15 Rocket 4.5 18:12:05 10° SSE 18:18:01 54° E 18:23:59 10° NNE
SL-08 R/B 4.4 18:14:13 10° N 18:20:26 90° E 18:26:33 10° S
Cosmos 1745 Rocket 3.9 18:14:14 10° N 18:20:31 66° E 18:26:48 10° SSE
Cosmos 44 3.9 18:16:09 10° SW 18:20:31 51° NW 18:24:23 15° NNE
CZ-4C R/B 4.4 18:17:55 10° NNW 18:22:22 18° NNE 18:24:33 16° NE
Lacrosse 5 3.7 18:21:24 10° NW 18:24:59 19° N 18:26:52 16° NNE
Cosmos 1408 3.7 18:23:42 10° N 18:25:49 32° N 18:25:49 32° N
H-2A R/B 2.0 18:22:08 10° SSE 18:27:30 75° ENE 18:32:58 10° N
Cosmos 1825 4.4 18:26:00 10° N 18:26:45 15° N 18:26:45 15° N
Meteor 2-15 4.3 18:25:14 10° S 18:31:22 85° E 18:37:33 10° N
Cosmos 1992 Rocket 3.9 18:26:28 10° S 18:31:34 59° ESE 18:32:52 45° NE
USA 307 3.8 18:31:50 10° NW 18:35:30 35° NNE 18:35:30 35° NNE
Cosmos 1386 Rocket 4.4 18:31:59 10° N 18:38:26 85° E 18:44:47 10° S
FALCON 9 DEB 4.2 18:36:09 10° WSW 18:38:42 39° WNW 18:38:42 39° WNW
Cosmos 1980 Rocket 4.2 18:34:20 10° SSE 18:34:49 12° SSE 18:34:49 12° SSE
Cosmos 2297 Rocket 2.5 18:34:07 10° NNW 18:39:46 68° WSW 18:44:22 15° S
Ariane Rocket 4.2 18:41:47 27° NNE 18:41:47 27° NNE 18:44:31 10° N
USA 308 3.9 18:36:38 10° NW 18:40:06 36° N 18:40:06 36° N
Cosmos 1340 4.3 18:40:09 10° NNW 18:43:35 34° W 18:47:00 10° SSW
Geosat 4.3 18:40:17 14° NNE 18:44:33 66° WNW 18:49:31 10° SW
BREEZE-M R/B 4.2 18:40:49 10° WNW 18:45:14 37° NNW 18:45:14 37° NNW
CSL-04 Debris 4.3 18:40:25 10° S 18:45:49 73° WSW 18:51:18 10° NNW
Cosmos 220 Rocket 4.4 18:44:52 10° SSW 18:48:14 54° SSW 18:48:14 54° SSW
Cosmos 1709 Rocket 3.9 18:44:13 10° N 18:50:35 65° E 18:51:44 55° SE
Cosmos 2058 3.8 18:57:44 10° NNW 19:01:41 46° W 19:01:47 46° W
CZ-4 R/B 3.8 18:59:39 10° SW 19:02:42 22° W 19:05:45 10° NW
Cosmos 883 Rocket 4.3 18:59:49 10° S 19:05:59 88° E 19:12:10 10° N
Cosmos 2219 4.5 19:01:24 10° NW 19:06:43 39° WSW 19:11:45 11° S
BREEZE-M TANK 3.4 19:03:48 10° WNW 19:07:55 49° W 19:07:55 49° W
NOSS 3-4 (A) 4.3 19:04:17 10° NNW 19:10:30 44° NE 19:10:30 44° NE
NOSS 3-4 (C) 4.3 19:04:24 10° NNW 19:10:36 44° NE 19:10:36 44° NE
SeaSat 1 2.7 19:11:59 65° W 19:11:59 65° W 19:16:42 10° NNW
Cosmos 2082 3.8 19:11:20 10° NNW 19:16:56 74° W 19:16:56 74° W
NOSS 3-3 (A) 3.9 19:13:22 10° SW 19:19:08 78° NW 19:19:19 77° NNW
NOSS 3-3 (C) 3.9 19:13:26 10° SW 19:19:16 78° NW 19:19:26 78° NNW
USA 215 3.4 19:20:27 59° NNE 19:20:27 59° NNE 19:26:42 10° NW
Cosmos 2369 4.2 19:21:41 10° SW 19:26:16 55° WSW 19:26:16 55° WSW
Atlas Centaur 2 4.1 19:21:07 10° SW 19:27:34 29° S 19:27:34 29° S
ATLAS 2AS CENTAUR R/B 3.4 19:25:55 10° NNW 19:31:55 43° NNE 19:31:55 43° NNE
ARGOS 4.3 19:32:00 33° SW 19:33:33 41° W 19:38:40 10° NNW
Cosmos 2227 Rocket 4.1 19:38:39 10° NW 19:43:12 25° WSW 19:45:29 20° SW
Cosmos 2263 Rocket 4.1 19:47:36 10° NNW 19:49:40 23° NNW 19:49:40 23° NNW
Cosmos 1697 Rocket 4.3 19:56:27 10° WSW 20:00:30 31° WNW 20:00:30 31° WNW
CZ-4C R/B 4.1 20:06:00 10° NNW 20:09:44 31° N 20:09:44 31° N
